Domov               UVHVVR             MKGP            O straneh              
ZDRAVSTVENO VARSTVO RASTLIN
  MREŽA AGROMET. POSTAJ
 ► PROGNOSTIČNA OBVESTILA
AGROMETEOROLOŠKI PODATKI -
ARSO
OBVLADOVANJE TVEGANJ ZARADI
NEUGODNIH VREMENSKIH RAZMER
  ► NARAVNE NESREČE
  ► SUŠA/MOČA
  ► NAMAKANJE
  ► ŽLED (gozdarstvo)
KARTOGRAFSKI PRIKAZI
SPLETNE POVEZAVE
PROJEKTI IN PUBLIKACIJE

AGROMETEOROLOŠKA MREŽA: VREMENSKE POSTAJE IN FENOLOŠKA OPAZOVANJA

Pregled podatkov za lokacijo Podbrezje, meteorološka postaja 855704

Pregled senzorjev na lokaciji

ID Ime Zadnja
vrednost
Datum
zadnje
spremembe
Tip
senzorja
4021 Temperatura 2 m (°C) 5,2 °C 11.12.2017 10:00 50YA
4022 Relativna vlaga 2 m (% RH) 99,99 % RH 11.12.2017 10:00 50YA
4023 Omočenost lista (U) 3 U 11.12.2017 10:00 A730WET
4024 Padavine (mm) 0,6 mm 11.12.2017 10:00 Rain-O-Matic

Pregled podatkov zadnjih 24 ur

Zap.
št.
Datum in čas Podbrezje
Omočenost
lista
Padavine Relativna
vlaga
2
m
Temperatura
2
m
0 11.12.2017 10:00 3 0,6 99,99 5,2
1 11.12.2017 09:30 2 0,6 99,99 2,89
2 11.12.2017 09:00 5 1 99,99 2,26
3 11.12.2017 08:30 3 1,6 99,99 1,93
4 11.12.2017 08:00 3 1,4 99,99 1,75
5 11.12.2017 07:30 3 1,8 99,99 1,85
6 11.12.2017 07:00 3 1,8 99,99 1,55
7 11.12.2017 06:30 3 2 99,99 1,71
8 11.12.2017 06:00 3 2 99,99 1,7
9 11.12.2017 05:30 3 2 99,99 1,45
10 11.12.2017 05:00 3 1,8 99,99 1,18
11 11.12.2017 04:30 3 1,6 100 0,92
12 11.12.2017 04:00 3 1,8 99,99 0,84
13 11.12.2017 03:30 3 2,2 100 0,97
14 11.12.2017 03:00 3 1,8 99,99 0,86
15 11.12.2017 02:30 3 1,6 99,99 0,75
16 11.12.2017 02:00 3 2,2 100 0,68
17 11.12.2017 01:30 3 2 100 0,59
18 11.12.2017 01:00 3 1,6 100 0,61
19 11.12.2017 00:30 3 1,4 100 0,58
20 11.12.2017 00:00 4 1 100 0,54
21 10.12.2017 23:30 9 1 99,99 0,61
22 10.12.2017 23:00 10 1 98,96 1,16
23 10.12.2017 22:30 10 0,6 95,17 1,93
24 10.12.2017 22:00 10 1,4 96,31 1,69
25 10.12.2017 21:30 10 2 98,33 1,1
26 10.12.2017 21:00 10 0 97,52 1,05
27 10.12.2017 20:30 10 0 99,37 0,72
28 10.12.2017 20:00 10 0 99,08 0,13
29 10.12.2017 19:30 10 0 98,14 0,26
30 10.12.2017 19:00 10 0 96,19 -0,1
31 10.12.2017 18:30 10 0 92,74 -0,17
32 10.12.2017 18:00 10 0 92,06 -0,59
33 10.12.2017 17:30 0 0 87,27 -0,2
34 10.12.2017 17:00 6 0 83,98 0,01
35 10.12.2017 16:30 10 0 85,78 -0,37
36 10.12.2017 16:00 10 0 81,87 -0,26
37 10.12.2017 15:30 10 0 73,4 0,3
38 10.12.2017 15:00 10 0 65,95 0,85
39 10.12.2017 14:30 10 0 65,81 0,83
40 10.12.2017 14:00 10 0 75,04 -0,2
41 10.12.2017 13:30 10 0 80,62 -0,75
42 10.12.2017 13:00 10 0 82,2 -1,4
43 10.12.2017 12:30 10 0 84,81 -2,46
44 10.12.2017 12:00 10 0 84,73 -3
45 10.12.2017 11:30 10 0 83,78 -3,2
46 10.12.2017 11:00 10 0 85,57 -3,99
© 2011 Ministrstvo za kmetijstvo, gozdarstvo in prehrano. Vse pravice pridržane.